Weather History for KMRY - February, 2013

Change the Weather History Date:

Friday, February 22, 2013

  Actual Average Record
Temperature  
Mean Temperature 48 °F 53 °F  
Max Temperature 58 °F 61 °F 73 °F (2012)
Min Temperature 37 °F 45 °F 37 °F (2006)
Degree Days  
Heating Degree Days 17    
Month to date heating degree days 345  
Since 1 July heating degree days 2170  
Cooling Degree Days 0    
Month to date cooling degree days 0  
Year to date cooling degree days 0  
Moisture  
Dew Point 39 °F    
Average Humidity 70    
Maximum Humidity 86    
Minimum Humidity 54    
Precipitation  
Precipitation 0.00 in - 0.55 in (2007)
Month to date precipitation 0.74  
Year to date precipitation 1.55  
Since 1 July precipitation 9.79  
Sea Level Pressure  
Sea Level Pressure 30.27 in    
Wind  
Wind Speed 5 mph (SW)    
Max Wind Speed 13 mph    
Max Gust Speed 16 mph    
Visibility 10 miles    
Events      
T = Trace of Precipitation, MM = Missing Value Source: NWS Daily Summary

Daily Weather History Graph

Daily Weather History Graph

Search for Another Location

Airport or City:

Trip Planner

Search our weather history database for the weather conditions in past years. The results will help you decide how hot, cold, wet, or windy it might be!

Date:

Astronomy

Feb. 22, 2013 Rise Set
Actual Time 6:46 AM PST 5:55 PM PST
Civil Twilight 6:20 AM PST 6:21 PM PST
Nautical Twilight 5:50 AM PST 6:51 PM PST
Astronomical Twilight 5:20 AM PST 7:21 PM PST
Moon 3:14 PM PST (2/22) 4:31 AM PST (2/22)
Length of Visible Light 12h 01m
Length of Day
11h 08m
Waxing Gibbous, 91% of the Moon is Illuminated
Feb 22
Waxing Gibbous
Feb 25
Full
Mar 4
Last Quarter
Mar 11
New
Mar 19
First Quarter

Hourly Weather History & Observations

Time (PST) Temp. Windchill Dew Point Humidity Pressure Visibility Wind Dir Wind Speed Gust Speed Precip Events Conditions
12:54 AM 42.1 °F 40.2 °F 34.0 °F 73% 30.23 in 10.0 mi ENE 3.5 mph - N/A   Clear
1:54 AM 42.1 °F - 34.0 °F 73% 30.24 in 10.0 mi Calm Calm - N/A   Clear
2:54 AM 39.9 °F - 34.0 °F 79% 30.23 in 10.0 mi Calm Calm - N/A   Clear
3:54 AM 37.9 °F 32.7 °F 33.1 °F 83% 30.22 in 10.0 mi East 6.9 mph - N/A   Clear
4:54 AM 37.9 °F 34.4 °F 33.1 °F 83% 30.24 in 10.0 mi East 4.6 mph - N/A   Clear
5:54 AM 37.9 °F 34.4 °F 32.0 °F 79% 30.25 in 10.0 mi East 4.6 mph - N/A   Clear
6:54 AM 37.0 °F 34.5 °F 32.0 °F 82% 30.26 in 10.0 mi ESE 3.5 mph - N/A   Clear
7:54 AM 42.1 °F 39.2 °F 34.0 °F 73% 30.28 in 10.0 mi East 4.6 mph - N/A   Clear
8:54 AM 50.0 °F - 36.0 °F 59% 30.29 in 10.0 mi Calm Calm - N/A   Clear
9:54 AM 53.1 °F - 39.0 °F 59% 30.29 in 10.0 mi Calm Calm - N/A   Clear
11:54 AM 55.9 °F - 39.0 °F 53% 30.30 in 10.0 mi WNW 6.9 mph - N/A   Clear
12:54 PM 53.1 °F - 37.9 °F 57% 30.28 in 10.0 mi NW 6.9 mph - N/A   Clear
1:54 PM 54.0 °F - 42.1 °F 64% 30.27 in 10.0 mi NW 6.9 mph - N/A   Clear
2:54 PM 55.0 °F - 43.0 °F 64% 30.26 in 10.0 mi NW 5.8 mph - N/A   Unknown
3:54 PM 55.9 °F - 39.9 °F 55% 30.27 in 10.0 mi West 8.1 mph - N/A   Clear
4:54 PM 54.0 °F - 39.9 °F 59% 30.27 in 10.0 mi WSW 4.6 mph - N/A   Clear
5:54 PM 51.1 °F - 42.1 °F 71% 30.28 in 10.0 mi SW 6.9 mph - N/A   Clear
6:54 PM 50.0 °F - 41.0 °F 71% 30.28 in 10.0 mi South 5.8 mph - N/A   Clear
7:54 PM 50.0 °F - 43.0 °F 77% 30.29 in 10.0 mi SW 8.1 mph - N/A   Partly Cloudy
8:54 PM 50.0 °F - 45.0 °F 83% 30.32 in 10.0 mi WSW 8.1 mph - N/A   Mostly Cloudy
9:54 PM 48.9 °F - 44.1 °F 83% 30.29 in 10.0 mi SSE 3.5 mph - N/A   Mostly Cloudy
10:54 PM 50.0 °F - 45.0 °F 83% 30.33 in 10.0 mi WSW 6.9 mph - N/A   Overcast
11:54 PM 50.0 °F - 45.0 °F 83% 30.33 in 10.0 mi SW 3.5 mph - N/A   Overcast